EW1795 Weather Reports


Display with metric or nautical units.
time (UTC)temp
F
wind
direction
speed
MPH
gust
MPH
rain 1hr
in
rain 24hr
in
rain mn
in
humidity
%
barometer
mb
20260504034543 60 234 8.0 17.0 0.00 0.00 0.00 38 993.1
20260504033041 60 193 7.0 15.0 0.00 0.00 0.00 38 993.6
20260504031537 60 200 4.0 11.0 0.00 0.00 0.00 37 994.1
20260504030134 61 227 5.0 12.0 0.00 0.00 0.00 37 994.7
20260504024558 62 199 4.0 13.0 0.00 0.00 0.00 36 995.2
20260504023055 62 200 6.0 11.0 0.00 0.00 0.00 35 995.7
20260504021553 62 189 4.0 11.0 0.00 0.00 0.00 35 995.9
20260504020153 63 269 4.0 13.0 0.00 0.00 0.00 34 996.2
20260504013103 64 261 6.0 12.0 0.00 0.00 0.00 33 996.8
20260504011550 64 214 6.0 14.0 0.00 0.00 0.00 32 997.1
20260504010146 65 271 5.0 14.0 0.00 0.00 0.00 32 997.5
20260504004550 65 196 4.0 11.0 0.00 0.00 0.00 32 997.9
20260504003048 65 226 6.0 14.0 0.00 0.00 0.00 32 998.2
20260504001553 64 245 5.0 16.0 0.00 0.00 0.00 33 998.6
20260504000142 65 280 6.0 16.0 0.00 0.00 0.00 32 998.8
20260503234550 65 233 7.0 20.0 0.00 0.00 0.00 32 999.2
20260503233053 66 245 9.0 18.0 0.00 0.00 0.00 30 999.4
20260503231544 66 242 8.0 23.0 0.00 0.00 0.00 30 999.9
20260503230141 66 200 7.0 16.0 0.00 0.00 0.00 29 1000.4
20260503224545 65 287 9.0 20.0 0.00 0.00 0.00 28 1000.8
20260503223041 65 309 4.0 17.0 0.00 0.00 0.00 29 1001.1
20260503221547 65 231 5.0 14.0 0.00 0.00 0.00 29 1001.6
20260503220005 64 181 6.0 14.0 0.00 0.00 0.00 29 1001.8
20260503214503 63 325 11.0 22.0 0.00 0.00 0.00 30 1002.2
20260503213058 65 206 8.0 15.0 0.00 0.00 0.00 30 1002.5
20260503211554 64 138 7.0 24.0 0.00 0.00 0.00 32 1002.9
20260503210003 63 123 13.0 22.0 0.00 0.00 0.00 31 1003.2
20260503204608 62 287 8.0 21.0 0.00 0.00 0.00 34 1003.5
20260503203106 62 286 5.0 22.0 0.00 0.00 0.00 33 1003.7
20260503201554 61 309 11.0 23.0 0.00 0.00 0.00 33 1003.9
20260503200151 60 309 10.0 21.0 0.00 0.00 0.00 35 1004.1
20260503194614 59 313 8.0 29.0 0.00 0.00 0.00 35 1004.6
20260503191549 59 346 12.0 23.0 0.00 0.00 0.00 36 1005.2
20260503190146 57 287 10.0 19.0 0.00 0.00 0.00 37 1005.6
20260503184555 58 234 7.0 18.0 0.00 0.00 0.00 37 1005.9
20260503183054 57 68 10.0 25.0 0.00 0.00 0.00 37 1006.1
20260503181545 57 264 6.0 15.0 0.00 0.00 0.00 39 1006.3
20260503180144 56 250 5.0 17.0 0.00 0.00 0.00 39 1006.5
20260503174545 56 290 6.0 18.0 0.00 0.00 0.00 38 1006.8
20260503173120 55 333 10.0 22.0 0.00 0.00 0.00 39 1007.0
20260503171546 55 338 9.0 21.0 0.00 0.00 0.00 40 1007.1
20260503170140 54 280 10.0 17.0 0.00 0.00 0.00 39 1007.2
20260503160135 52 323 9.0 17.0 0.00 0.00 0.00 40 1007.7
20260503150153 50 6 8.0 19.0 0.00 0.00 0.00 42 1007.9
20260503140148 46 313 8.0 20.0 0.00 0.00 0.00 54 1008.2
20260503130144 44 345 5.0 15.0 0.00 0.00 0.00 61 1008.1
20260503120141 41 334 5.0 15.0 0.00 0.00 0.00 67 1007.5
20260503110137 39 342 3.0 10.0 0.00 0.00 0.00 78 1007.1
20260503100150 40 318 0.0 0.0 0.00 0.00 0.00 87 1006.7
20260503090144 40 332 0.0 0.0 0.00 0.00 0.00 91 1006.6
20260503081555 41 320 2.0 8.0 0.00 0.00 0.00 90 1006.7
20260503080144 40 334 0.0 3.0 0.00 0.00 0.00 91 1006.6
20260503071545 39 126 0.0 0.0 0.00 0.00 0.00 95 1006.7
20260503070140 38 126 0.0 0.0 0.00 0.00 0.00 93 1006.8
20260503054504 43 126 0.0 0.0 0.00 0.00 0.00 87 1007.1
20260503053100 44 126 0.0 0.0 0.00 0.00 0.00 84 1007.1
20260503051557 46 126 0.0 0.0 0.00 0.00 0.00 81 1007.2
20260503050156 46 126 0.0 0.0 0.00 0.00 0.00 81 1007.1
20260503044556 46 126 0.0 0.0 0.00 0.00 0.00 83 1007.3
20260503043100 46 126 0.0 0.0 0.00 0.00 0.00 82 1007.3
20260503041552 47 126 0.0 0.0 0.00 0.00 0.00 82 1007.4
20260503040150 47 126 0.0 0.0 0.00 0.00 0.00 79 1007.5